This demonstration page uses our WeatherBlox Daily Observations layout. Learn more.

Left ArrowRight Arrow

34.74481, -87.66753

Hourly Observations for May 25, 2017

Temp ( °F °C ) Dew Point ( °F °C ) Humidity (%) Winds ( mph kmh ) Pressure ( in mb ) Visibility ( mi km ) Precip ( " mm )
12:53 am 00:53 Mostly Cloudy 55 12.8 52 11.1 90 90 WSW 6 9 29.65 1004 10 16 0.00 0.00
1:53 am 01:53 Mostly Cloudy 55 12.8 51 10.6 87 87 WSW 6 9 29.65 1004 10 16 0.00 0.00
2:53 am 02:53 Clear 54 12.2 51 10.6 90 90 W 7 11 29.66 1004 10 16 0.00 0.00
3:53 am 03:53 Cloudy 55 12.8 51 10.6 87 87 W 8 13 29.68 1005 10 16 0.00 0.00
4:53 am 04:53 Clear 53 11.7 50 10 89 89 W 5 7 29.69 1005 10 16 0.00 0.00
5:53 am 05:53 Sunny 52 11.1 49 9.4 89 89 W 6 9 29.72 1006 10 16 0.00 0.00
6:53 am 06:53 Sunny 55 12.8 51 10.6 87 87 WSW 7 11 29.73 1007 10 16 0.00 0.00
7:53 am 07:53 Sunny 58 14.4 51 10.6 78 78 W 10 17 29.76 1008 10 16 0.00 0.00
8:53 am 08:53 Sunny 62 16.7 53 11.7 73 73 W 10 17 29.78 1008 10 16 0.00 0.00
9:53 am 09:53 Sunny 66 18.9 52 11.1 61 61 W 12 19 29.79 1009 10 16 0.00 0.00
10:53 am 10:53 Sunny 70 21.1 52 11.1 53 53 W 13 20 29.80 1009 10 16 0.00 0.00
11:53 am 11:53 Mostly Cloudy 71 21.7 51 10.6 49 49 W 20 31 29.81 1010 10 16 0.00 0.00
12:53 pm 12:53 Partly Cloudy 73 22.8 49 9.4 43 43 W 15 24 29.81 1010 10 16 0.00 0.00
1:53 pm 13:53 Mostly Sunny 74 23.3 49 9.4 41 41 W 13 20 29.81 1010 10 16 0.00 0.00
2:53 pm 14:53 Partly Cloudy 74 23.3 49 9.4 41 41 W 12 19 29.81 1010 10 16 0.00 0.00
3:53 pm 15:53 Mostly Cloudy 75 23.9 50 10 41 41 WSW 14 22 29.81 1010 10 16 0.00 0.00
4:53 pm 16:53 Mostly Sunny 75 23.9 50 10 41 41 NW 7 11 29.81 1010 10 16 0.00 0.00
5:53 pm 17:53 Mostly Sunny 73 22.8 50 10 44 44 SW 8 13 29.81 1010 10 16 0.00 0.00
6:53 pm 18:53 Sunny 72 22.2 51 10.6 48 48 WSW 7 11 29.82 1010 10 16 0.00 0.00
7:53 pm 19:53 Sunny 68 20 52 11.1 57 57 SSW 3 6 29.84 1010 10 16 0.00 0.00
8:53 pm 20:53 Clear 61 16.1 54 12.2 78 78 S 3 6 29.85 1011 10 16 0.00 0.00
9:53 pm 21:53 Clear 60 15.6 54 12.2 80 80 SSE 5 7 29.87 1012 10 16 0.00 0.00
10:53 pm 22:53 Clear 58 14.4 54 12.2 87 87 Calm 29.89 1012 10 16 0.00 0.00
11:53 pm 23:53 Clear 57 13.9 54 12.2 90 90 Calm 29.89 1012 10 16 0.00 0.00

Powered by AerisWeather